Location: Rayville (historical)
(39.9992°N, 99.6815°W)
Time: 16:21:21
(UTC+00:00)

Cosmos 1862 Rocket - Visible Passes

Search period start: 14 July 2020 00:00
Search period end: 24 July 2020 00:00
Orbit: 604 x 634 km, 82.5° (Epoch: 13 July)

Date Brightness Start Highest point End Pass type
(mag) Time Alt. Az. Time Alt. Az. Time Alt. Az.
14 Jul 5.6 06:20:01 10° NNE 06:23:02 20° ENE 06:23:02 20° ENE visible
14 Jul 5.0 07:57:18 10° NNW 08:00:10 29° WNW 08:00:10 29° WNW visible
15 Jul 4.9 06:36:41 10° N 06:40:03 34° NE 06:40:03 34° NE visible
15 Jul 5.7 08:15:22 10° NW 08:17:12 16° WNW 08:17:12 16° WNW visible
16 Jul 4.4 06:53:44 10° N 06:57:06 49° NNE 06:57:06 49° NNE visible
17 Jul 6.1 05:35:27 10° NE 05:37:01 12° ENE 05:37:01 12° ENE visible
17 Jul 4.7 07:11:03 10° NNW 07:14:09 41° NW 07:14:09 41° NW visible
18 Jul 5.5 05:51:18 10° NNE 05:54:05 21° ENE 05:54:05 21° ENE visible
18 Jul 5.3 07:28:42 10° NNW 07:31:13 25° NW 07:31:13 25° NW visible
19 Jul 5.0 06:08:01 10° N 06:11:09 33° NE 06:11:09 33° NE visible
19 Jul 5.9 07:46:49 10° NW 07:48:17 15° WNW 07:48:17 15° WNW visible
20 Jul 4.6 06:25:05 10° N 06:28:14 44° N 06:28:14 44° N visible
21 Jul 6.0 05:06:37 10° NE 05:08:12 13° ENE 05:08:12 13° ENE visible
21 Jul 4.9 06:42:26 10° NNW 06:45:20 37° NW 06:45:20 37° NW visible
22 Jul 5.5 05:22:36 10° NNE 05:25:19 21° ENE 05:25:19 21° ENE visible
22 Jul 5.5 07:00:06 10° NNW 07:02:27 24° NW 07:02:27 24° NW visible
23 Jul 4.9 05:39:21 10° N 05:42:26 34° NE 05:42:26 34° NE visible
23 Jul 6.0 07:18:17 10° NW 07:19:35 14° WNW 07:19:35 14° WNW visible
